SCP
0 0 0 0 0 0 0 0 0 0 0 0 0 0 0 0 0 0 0 0 0 0 0 0 0 0 0 0 0 0 0 0 0 0 0 0 0 0 0 0 0 0 0
0 0 0 0 0 0 0 0 0 0 0 0 0 0 0 0 0 0 0 0 0 0 0 0 0 0 0 0 0 0 0 0 0 0 0 0 0 0 0 0 0 0 0
0 0 0 0 0 0 0 0 0 0 0 0 0 0 0 0 0 0 0 0 0 0 0 0 0 0 0 0 0 0 0 0 0 0 0 0 0 0 0 0 0 0 0
0 0 0 0 0 0 0 0 0 0 0 0 0 0 0 0 0 0 0 0 0 0 0 0 0 0 0 0 0 0 0 0 0 0 0 0 0 0 0 0 0 0 0
0 0 0 0 0 0 0 0 0 0 0 0 0 0 0 0 0 0 0 0 0 0 0 0 0 0 0 0 0 0 0 0 0 0 0 0 0 0 0 0 0 0 0
0 0 0 0 0 0 0 0 0 0 0 0 0 0 0 0 0 0 0 0 0 0 0 0 0 0 0 0 0 0 0 0 0 0 0 0 0 0 0 0 0 0 0
0 0 0 0 0 0 0 0 0 0 0 0 0 0 0 0 0 0 0 0 0 0 0 0 0 0 0 0 0 0 0 0 0 0 0 0 0 0 0 0 0 0 0
0 0 0 0 0 0 0 0 0 0 0 0 0 0 0 0 0 0 0 0 0 0 0 0 0 0 0 0 0 0 0 0 0 0 0 0 0 0 0 0 0 0 0
0 0 0 0 0 0 0 0 0 0 0 0 0 0 0 0 0 0 0 0 0 0 0 0 0 0 0 0 0 0 0 0 0 0 0 0 0 0 0 0 0 0 0
0 0 0 0 0 0 0 0 0 0 0 0 0 0 0 0 0 0 0 0 0 0 0 0 0 0 0 0 0 0 0 0 0 0 0 0 0 0 0 0 0 0 0
0 0 0 0 0 0 0 0 0 0 0 0 0 0 0 0 0 0 0 0 0 0 0 0 0 0 0 0 0 0 0 0 0 0 0 0 0 0 0 0 0 0 0
0 0 0 0 0 0 0 0 0 0 0 0 0 0 0 0 0 0 0 0 0 0 0 0 0 0 0 0 0 0 0 0 0 0 0 0 0 0 0 0 0 0 0
0 0 0 0 0 0 0 0 0 0 0 0 0 0 0 0 0 0 0 0 0 0 0 0 0 0 0 0 0 0 0 0 0 0 0 0 0 0 0 0 0 0 0
0 0 0 0 0 0 0 0 0 0 0 0 0 0 0 0 0 0 0 0 0 0 0 0 0 0 0 0 0 0 0 0 0 0 0 0 0 0 0 0 0 0 0
0 0 0 0 0 0 0 0 0 0 0 0 0 0 0 0 0 0 0 0 0 0 0 0 0 0 0 0 0 0 0 0 0 0 0 0 0 0 0 0 0 0 0
0 0 0 0 0 0 0 0 0 0 0 0 0 0 0 0 0 0 0 0 0 0 0 0 0 0 0 0 0 0 0 0 0 0 0 0 0 0 0 0 0 0 0
0 0 0 0 0 0 0 0 0 0 0 0 0 0 0 0 0 0 0 0 0 0 0 0 0 0 0 0 0 0 0 0 0 0 0 0 0 0 0 0 0 0 0
0 0 0 0 0 0 0 0 0 0 0 0 0 0 0 0 0 0 0 0 0 0 0 0 0 0 0 0 0 0 0 0 0 0 0 0 0 0 0 0 0 0 0
0 0 0 0 0 0 0 0 0 0 0 0 0 0 0 0 0 0 0 0 0 0 0 0 0 0 0 0 0 0 0 0 0 0 0 0 0 0 0 0 0 0 0
0 0 0 0 0 0 0 0 0 0 0 0 0 0 0 0 0 0 0 0 0 0 0 0 0 0 0 0 0 0 0 0 0 0 0 0 0 0 0 0 0 0 0
0 0 0 0 0 -0 -0 -0 -0 0 0 0 0 0 0 0 0 0 0 0 0 0 0 0 0 0 0 0 0 0 0 0 0 0 0 0 0 0 0 0 0 0 0
0 0 0 0 -0 -0 -0 -0 0 0 0 0 0 0 0 0 0 0 0 0 0 0 0 0 0 0 0 0 0 0 0 0 0 0 0 0 0 0 0 0 0 0 0
0 0 0 0 0 0 0 0 0 0 0 0 0 0 0 0 0 0 0 0 0 0 0 0 0 0 0 0 0 0 0 0 0 0 0 0 0 0 0 0 0 0 0
0 -0 0 0 0 0 0 0 0 0 0 0 0 0 0 0 0 0 0 0 0 0 0 0 0 0 0 0 0 0 0 0 0 0 0 0 0 0 0 0 0 0 0
0 0 0 0 0 0 0 0 0 0 0 0 0 0 0 0 0 0 0 0 0 0 0 0 0 0 0 0 0 0 0 0 0 0 0 0 0 0 0 0 0 0 0
0 0 0 0 0 0 0 0 0 0 0 0 0 0 0 0 0 0 0 0 0 0 0 0 0 0 0 0 0 0 0 0 0 0 0 0 0 0 0 0 0 0 0
Wind_Speed_500mb
11 14 16 20 22 25 22 22 29 28 28 17 16 16 13 9 9 7 11 10 8 8 8 9 9 7 9 10 10 9 11 13 18 19 20 24 27 27 31 34 36 37 38
5 5 5 5 9 14 18 22 19 19 20 12 12 12 10 8 7 5 7 10 10 11 9 7 5 2 1 2 4 4 6 9 11 14 16 19 22 25 27 29 31 33 34
4 5 5 6 7 9 10 14 17 16 14 15 13 13 13 13 12 11 9 9 9 9 7 5 2 1 3 6 9 12 14 13 11 11 12 14 17 19 21 24 27 30 33
10 9 8 7 6 8 9 9 14 16 16 16 16 14 15 15 13 12 13 11 9 8 7 4 4 6 8 10 11 12 12 13 13 12 12 13 16 21 23 24 24 29 34
11 13 12 10 12 11 11 12 14 15 14 13 14 16 18 18 19 17 13 9 6 5 5 6 7 9 10 13 15 16 17 17 15 15 15 16 19 23 28 32 33 34 38
13 14 15 15 16 17 16 16 17 18 19 19 19 18 17 16 12 10 8 7 6 6 6 7 10 13 16 18 18 19 17 15 15 15 15 18 21 24 29 33 37 43 45
15 18 21 21 21 23 23 22 22 21 21 18 17 15 13 11 11 9 8 7 7 8 10 12 14 15 16 16 16 16 16 15 15 15 17 20 23 26 31 35 40 43 47
17 20 22 21 20 21 21 20 19 18 17 15 15 14 12 10 10 9 10 10 11 11 12 13 13 13 12 12 14 14 15 15 17 18 20 24 28 31 33 37 41 45 44
17 18 19 20 18 18 16 16 16 16 16 14 13 12 10 8 10 10 10 11 11 12 12 12 12 11 12 14 14 16 18 19 19 22 23 24 28 32 34 36 40 48 55
17 16 14 15 16 16 16 15 14 14 12 10 7 6 6 6 7 6 8 9 9 10 10 11 11 12 12 12 14 16 16 18 19 20 21 23 25 28 33 37 41 46 51
15 16 17 16 16 15 14 12 10 6 4 2 2 4 6 8 10 10 10 11 11 11 11 11 11 12 14 17 17 18 17 17 18 18 20 23 26 29 32 36 40 45 49
14 13 14 15 15 14 12 10 8 5 5 5 6 9 10 12 14 13 12 13 12 12 12 12 13 16 19 19 18 18 17 17 17 19 22 24 26 28 31 34 37 39 45
20 17 17 18 18 17 15 13 11 10 10 11 14 15 16 17 17 17 17 15 15 15 16 16 17 18 19 20 19 17 16 15 17 19 21 24 28 31 34 36 39 40 40
24 26 25 25 23 22 19 17 16 16 17 18 20 21 22 21 20 20 19 18 17 16 16 18 20 21 21 19 18 16 16 16 18 19 22 26 29 33 37 40 42 46 46
28 31 32 30 27 25 23 22 20 22 24 25 26 26 26 26 25 25 22 20 20 22 22 23 24 23 22 20 17 16 18 19 20 24 27 29 32 35 39 43 47 49 50
32 32 31 31 30 28 25 26 28 30 31 31 32 32 31 30 31 28 26 25 25 27 25 23 23 22 20 20 20 20 22 25 25 28 31 34 37 40 44 46 50 53 56
32 31 32 32 31 31 33 34 34 35 35 34 33 32 30 30 31 31 30 28 29 30 28 25 24 24 21 21 23 24 24 26 29 32 35 38 42 45 51 53 54 58 59
32 34 36 36 37 37 37 37 38 38 38 37 37 36 34 34 33 32 32 33 34 30 32 29 27 26 25 25 27 29 31 34 36 39 42 45 48 52 56 60 61 65 67
35 35 36 37 39 41 44 44 43 42 41 40 40 39 38 36 36 35 35 38 35 33 34 33 32 31 32 33 34 36 40 43 45 48 50 52 54 59 63 66 69 70 73
36 39 42 45 46 48 47 47 47 45 45 43 42 37 40 39 39 36 38 40 40 37 37 38 37 40 41 42 43 45 48 51 54 56 58 60 61 65 71 74 75 77 77
44 46 48 51 51 49 50 50 46 48 47 45 41 39 41 43 41 42 42 42 42 40 39 42 45 47 49 50 52 55 58 60 63 64 66 67 69 73 74 78 81 81 79
48 48 50 50 50 51 49 48 49 50 48 45 41 40 44 46 43 42 42 43 43 46 47 50 53 54 55 56 58 62 65 68 69 70 72 75 77 77 79 80 81 79 77
49 50 52 51 50 50 50 50 50 49 46 43 41 41 45 46 46 44 44 44 46 50 52 57 60 61 60 62 65 68 71 72 73 75 78 80 82 81 80 80 77 75 71
50 50 50 49 50 50 49 48 47 46 45 44 43 43 43 45 48 48 48 48 51 54 57 60 63 65 65 67 69 71 73 74 76 77 78 80 81 79 77 76 72 68 64
46 46 47 46 47 46 46 46 46 45 44 43 41 42 42 45 49 50 52 54 56 58 60 62 65 66 67 68 69 70 72 73 75 75 75 75 76 74 71 70 64 61 56
43 43 43 43 44 44 44 43 41 41 42 42 44 45 47 49 51 53 55 57 59 61 63 64 66 67 68 69 69 69 71 71 71 69 70 73 71 64 59 57 56 55 52
Wind_Direction_500mb
256 256 249 245 244 242 239 239 244 252 260 234 258 268 258 254 238 280 276 255 235 211 191 217 235 243 254 250 253 255 238 240 254 256 260 273 287 299 309 313 317 318 320
245 240 249 247 240 232 219 229 230 219 221 227 222 246 225 219 225 193 189 205 206 215 211 208 197 219 226 282 296 290 304 288 274 265 273 286 298 307 312 317 318 319 324
119 125 113 147 159 148 157 174 175 165 173 177 168 169 164 172 163 159 171 174 166 166 152 132 119 96 334 337 334 328 321 315 311 302 296 298 306 315 321 326 328 328 327
99 118 130 149 160 169 174 153 142 137 147 156 155 156 155 147 141 135 127 127 126 120 113 81 24 5 347 335 336 340 339 340 337 330 321 320 326 330 331 328 325 329 328
116 123 129 139 148 158 153 142 138 139 144 144 142 140 135 134 127 119 113 111 98 60 33 17 5 356 357 358 358 354 349 342 338 336 334 334 334 335 335 337 336 334 331
121 129 130 133 134 135 139 139 132 130 127 124 124 122 123 126 114 104 88 66 53 44 26 17 11 6 2 359 355 351 346 346 345 343 341 336 337 338 335 335 336 339 345
130 126 122 122 125 126 126 126 127 125 120 121 120 116 117 108 95 86 74 55 34 20 11 7 3 358 356 354 353 353 350 345 338 337 339 337 334 338 336 340 340 341 339
140 132 129 127 128 127 126 128 126 121 120 116 111 108 105 101 83 64 44 28 13 2 354 350 348 350 348 347 346 342 341 338 332 337 338 340 338 340 341 338 335 335 335
151 144 139 140 140 137 137 135 131 124 121 116 113 104 93 69 44 28 16 3 349 338 335 335 335 341 339 339 337 334 336 334 335 339 341 338 334 334 335 333 334 335 337
164 162 163 165 155 154 152 150 147 140 137 127 110 84 48 33 15 357 344 338 326 317 315 314 315 319 325 331 334 336 338 334 334 332 329 328 329 330 332 334 337 338 339
190 184 179 173 175 170 166 160 154 142 122 76 5 343 334 333 328 322 322 313 307 299 289 291 298 311 324 333 332 330 329 326 324 324 324 328 333 337 336 336 339 338 335
194 190 191 194 193 186 184 182 188 195 229 260 282 290 297 296 296 298 295 294 293 290 290 295 299 311 317 315 314 313 314 320 322 327 333 334 334 335 334 336 333 333 334
210 217 221 215 209 203 201 212 227 242 254 265 271 276 281 284 289 291 293 291 288 287 284 290 297 300 300 300 302 308 316 322 324 326 330 330 330 332 332 334 332 333 336
234 233 225 211 211 212 217 227 240 254 262 269 275 279 278 279 278 278 280 278 273 279 288 294 295 295 296 294 297 306 309 311 316 323 323 327 330 330 330 330 330 330 333
237 228 217 213 214 221 229 240 251 262 266 267 271 276 276 275 273 274 273 272 275 279 288 290 292 293 293 291 293 298 301 306 314 319 322 324 325 326 326 326 327 329 332
229 222 218 221 226 234 244 254 258 261 268 272 273 271 270 267 267 269 269 265 268 276 280 285 285 284 284 285 290 296 301 305 313 315 316 318 319 321 322 323 324 325 326
229 230 232 236 241 246 250 254 258 262 266 268 270 271 269 268 267 268 266 265 266 273 282 276 275 275 276 283 286 289 293 298 303 305 309 312 314 316 315 318 319 320 321
234 235 237 241 246 251 258 260 262 266 271 274 276 275 273 270 267 266 260 258 263 267 269 270 273 277 279 280 282 287 293 297 300 302 305 307 308 309 310 313 316 317 318
243 247 251 253 256 258 260 263 267 270 273 276 275 275 272 267 265 264 256 257 263 264 263 267 271 273 276 280 285 289 292 295 297 299 301 302 303 305 307 309 312 313 314
253 256 257 256 258 261 264 267 269 272 273 272 271 268 264 262 262 259 256 257 260 262 263 268 271 275 278 281 284 287 289 291 294 296 299 301 303 303 305 307 308 309 310
256 256 258 259 262 265 266 268 270 270 272 272 273 268 264 263 262 257 256 258 263 266 268 271 275 277 279 281 283 286 289 291 293 296 298 299 300 301 303 304 305 306 307
260 261 261 264 264 263 266 267 267 269 270 271 269 265 264 265 264 260 259 260 264 268 270 272 275 278 280 282 285 287 289 290 293 296 296 298 299 300 301 302 302 303 304
260 261 262 263 264 264 263 264 266 267 267 266 264 260 261 265 265 262 261 262 264 266 269 272 276 279 282 284 285 288 290 293 296 296 297 298 299 300 301 301 302 302 303
261 260 260 260 258 258 258 259 261 263 264 264 262 260 257 261 263 264 267 270 270 271 272 274 277 280 283 285 286 288 290 292 293 294 295 297 299 300 301 301 302 302 302
259 258 258 257 257 257 257 256 257 260 262 263 263 263 265 265 266 267 269 271 273 275 277 279 281 283 284 285 286 289 291 292 293 295 295 297 298 300 302 302 303 303 303
255 256 256 254 254 255 257 259 261 262 262 265 267 269 271 271 272 272 272 273 276 277 279 280 282 284 286 287 289 289 289 291 294 295 298 299 298 300 300 301 301 301 301
Wind_Speed_850mb
11 14 16 20 22 25 22 22 29 28 28 17 16 16 13 9 9 7 11 10 8 8 8 9 9 7 9 10 10 9 11 13 18 19 20 24 27 27 31 34 36 37 38
5 5 5 5 9 14 18 22 19 19 20 12 12 12 10 8 7 5 7 10 10 11 9 7 5 2 1 2 4 4 6 9 11 14 16 19 22 25 27 29 31 33 34
4 5 5 6 7 9 10 14 17 16 14 15 13 13 13 13 12 11 9 9 9 9 7 5 2 1 3 6 9 12 14 13 11 11 12 14 17 19 21 24 27 30 33
10 9 8 7 6 8 9 9 14 16 16 16 16 14 15 15 13 12 13 11 9 8 7 4 4 6 8 10 11 12 12 13 13 12 12 13 16 21 23 24 24 29 34
11 13 12 10 12 11 11 12 14 15 14 13 14 16 18 18 19 17 13 9 6 5 5 6 7 9 10 13 15 16 17 17 15 15 15 16 19 23 28 32 33 34 38
13 14 15 15 16 17 16 16 17 18 19 19 19 18 17 16 12 10 8 7 6 6 6 7 10 13 16 18 18 19 17 15 15 15 15 18 21 24 29 33 37 43 45
15 18 21 21 21 23 23 22 22 21 21 18 17 15 13 11 11 9 8 7 7 8 10 12 14 15 16 16 16 16 16 15 15 15 17 20 23 26 31 35 40 43 47
17 20 22 21 20 21 21 20 19 18 17 15 15 14 12 10 10 9 10 10 11 11 12 13 13 13 12 12 14 14 15 15 17 18 20 24 28 31 33 37 41 45 44
17 18 19 20 18 18 16 16 16 16 16 14 13 12 10 8 10 10 10 11 11 12 12 12 12 11 12 14 14 16 18 19 19 22 23 24 28 32 34 36 40 48 55
17 16 14 15 16 16 16 15 14 14 12 10 7 6 6 6 7 6 8 9 9 10 10 11 11 12 12 12 14 16 16 18 19 20 21 23 25 28 33 37 41 46 51
15 16 17 16 16 15 14 12 10 6 4 2 2 4 6 8 10 10 10 11 11 11 11 11 11 12 14 17 17 18 17 17 18 18 20 23 26 29 32 36 40 45 49
14 13 14 15 15 14 12 10 8 5 5 5 6 9 10 12 14 13 12 13 12 12 12 12 13 16 19 19 18 18 17 17 17 19 22 24 26 28 31 34 37 39 45
20 17 17 18 18 17 15 13 11 10 10 11 14 15 16 17 17 17 17 15 15 15 16 16 17 18 19 20 19 17 16 15 17 19 21 24 28 31 34 36 39 40 40
24 26 25 25 23 22 19 17 16 16 17 18 20 21 22 21 20 20 19 18 17 16 16 18 20 21 21 19 18 16 16 16 18 19 22 26 29 33 37 40 42 46 46
28 31 32 30 27 25 23 22 20 22 24 25 26 26 26 26 25 25 22 20 20 22 22 23 24 23 22 20 17 16 18 19 20 24 27 29 32 35 39 43 47 49 50
32 32 31 31 30 28 25 26 28 30 31 31 32 32 31 30 31 28 26 25 25 27 25 23 23 22 20 20 20 20 22 25 25 28 31 34 37 40 44 46 50 53 56
32 31 32 32 31 31 33 34 34 35 35 34 33 32 30 30 31 31 30 28 29 30 28 25 24 24 21 21 23 24 24 26 29 32 35 38 42 45 51 53 54 58 59
32 34 36 36 37 37 37 37 38 38 38 37 37 36 34 34 33 32 32 33 34 30 32 29 27 26 25 25 27 29 31 34 36 39 42 45 48 52 56 60 61 65 67
35 35 36 37 39 41 44 44 43 42 41 40 40 39 38 36 36 35 35 38 35 33 34 33 32 31 32 33 34 36 40 43 45 48 50 52 54 59 63 66 69 70 73
36 39 42 45 46 48 47 47 47 45 45 43 42 37 40 39 39 36 38 40 40 37 37 38 37 40 41 42 43 45 48 51 54 56 58 60 61 65 71 74 75 77 77
44 46 48 51 51 49 50 50 46 48 47 45 41 39 41 43 41 42 42 42 42 40 39 42 45 47 49 50 52 55 58 60 63 64 66 67 69 73 74 78 81 81 79
48 48 50 50 50 51 49 48 49 50 48 45 41 40 44 46 43 42 42 43 43 46 47 50 53 54 55 56 58 62 65 68 69 70 72 75 77 77 79 80 81 79 77
49 50 52 51 50 50 50 50 50 49 46 43 41 41 45 46 46 44 44 44 46 50 52 57 60 61 60 62 65 68 71 72 73 75 78 80 82 81 80 80 77 75 71
50 50 50 49 50 50 49 48 47 46 45 44 43 43 43 45 48 48 48 48 51 54 57 60 63 65 65 67 69 71 73 74 76 77 78 80 81 79 77 76 72 68 64
46 46 47 46 47 46 46 46 46 45 44 43 41 42 42 45 49 50 52 54 56 58 60 62 65 66 67 68 69 70 72 73 75 75 75 75 76 74 71 70 64 61 56
43 43 43 43 44 44 44 43 41 41 42 42 44 45 47 49 51 53 55 57 59 61 63 64 66 67 68 69 69 69 71 71 71 69 70 73 71 64 59 57 56 55 52
Wind_Direction_850mb
256 256 249 245 244 242 239 239 244 252 260 234 258 268 258 254 238 280 276 255 235 211 191 217 235 243 254 250 253 255 238 240 254 256 260 273 287 299 309 313 317 318 320
245 240 249 247 240 232 219 229 230 219 221 227 222 246 225 219 225 193 189 205 206 215 211 208 197 219 226 282 296 290 304 288 274 265 273 286 298 307 312 317 318 319 324
119 125 113 147 159 148 157 174 175 165 173 177 168 169 164 172 163 159 171 174 166 166 152 132 119 96 334 337 334 328 321 315 311 302 296 298 306 315 321 326 328 328 327
99 118 130 149 160 169 174 153 142 137 147 156 155 156 155 147 141 135 127 127 126 120 113 81 24 5 347 335 336 340 339 340 337 330 321 320 326 330 331 328 325 329 328
116 123 129 139 148 158 153 142 138 139 144 144 142 140 135 134 127 119 113 111 98 60 33 17 5 356 357 358 358 354 349 342 338 336 334 334 334 335 335 337 336 334 331
121 129 130 133 134 135 139 139 132 130 127 124 124 122 123 126 114 104 88 66 53 44 26 17 11 6 2 359 355 351 346 346 345 343 341 336 337 338 335 335 336 339 345
130 126 122 122 125 126 126 126 127 125 120 121 120 116 117 108 95 86 74 55 34 20 11 7 3 358 356 354 353 353 350 345 338 337 339 337 334 338 336 340 340 341 339
140 132 129 127 128 127 126 128 126 121 120 116 111 108 105 101 83 64 44 28 13 2 354 350 348 350 348 347 346 342 341 338 332 337 338 340 338 340 341 338 335 335 335
151 144 139 140 140 137 137 135 131 124 121 116 113 104 93 69 44 28 16 3 349 338 335 335 335 341 339 339 337 334 336 334 335 339 341 338 334 334 335 333 334 335 337
164 162 163 165 155 154 152 150 147 140 137 127 110 84 48 33 15 357 344 338 326 317 315 314 315 319 325 331 334 336 338 334 334 332 329 328 329 330 332 334 337 338 339
190 184 179 173 175 170 166 160 154 142 122 76 5 343 334 333 328 322 322 313 307 299 289 291 298 311 324 333 332 330 329 326 324 324 324 328 333 337 336 336 339 338 335
194 190 191 194 193 186 184 182 188 195 229 260 282 290 297 296 296 298 295 294 293 290 290 295 299 311 317 315 314 313 314 320 322 327 333 334 334 335 334 336 333 333 334
210 217 221 215 209 203 201 212 227 242 254 265 271 276 281 284 289 291 293 291 288 287 284 290 297 300 300 300 302 308 316 322 324 326 330 330 330 332 332 334 332 333 336
234 233 225 211 211 212 217 227 240 254 262 269 275 279 278 279 278 278 280 278 273 279 288 294 295 295 296 294 297 306 309 311 316 323 323 327 330 330 330 330 330 330 333
237 228 217 213 214 221 229 240 251 262 266 267 271 276 276 275 273 274 273 272 275 279 288 290 292 293 293 291 293 298 301 306 314 319 322 324 325 326 326 326 327 329 332
229 222 218 221 226 234 244 254 258 261 268 272 273 271 270 267 267 269 269 265 268 276 280 285 285 284 284 285 290 296 301 305 313 315 316 318 319 321 322 323 324 325 326
229 230 232 236 241 246 250 254 258 262 266 268 270 271 269 268 267 268 266 265 266 273 282 276 275 275 276 283 286 289 293 298 303 305 309 312 314 316 315 318 319 320 321
234 235 237 241 246 251 258 260 262 266 271 274 276 275 273 270 267 266 260 258 263 267 269 270 273 277 279 280 282 287 293 297 300 302 305 307 308 309 310 313 316 317 318
243 247 251 253 256 258 260 263 267 270 273 276 275 275 272 267 265 264 256 257 263 264 263 267 271 273 276 280 285 289 292 295 297 299 301 302 303 305 307 309 312 313 314
253 256 257 256 258 261 264 267 269 272 273 272 271 268 264 262 262 259 256 257 260 262 263 268 271 275 278 281 284 287 289 291 294 296 299 301 303 303 305 307 308 309 310
256 256 258 259 262 265 266 268 270 270 272 272 273 268 264 263 262 257 256 258 263 266 268 271 275 277 279 281 283 286 289 291 293 296 298 299 300 301 303 304 305 306 307
260 261 261 264 264 263 266 267 267 269 270 271 269 265 264 265 264 260 259 260 264 268 270 272 275 278 280 282 285 287 289 290 293 296 296 298 299 300 301 302 302 303 304
260 261 262 263 264 264 263 264 266 267 267 266 264 260 261 265 265 262 261 262 264 266 269 272 276 279 282 284 285 288 290 293 296 296 297 298 299 300 301 301 302 302 303
261 260 260 260 258 258 258 259 261 263 264 264 262 260 257 261 263 264 267 270 270 271 272 274 277 280 283 285 286 288 290 292 293 294 295 297 299 300 301 301 302 302 302
259 258 258 257 257 257 257 256 257 260 262 263 263 263 265 265 266 267 269 271 273 275 277 279 281 283 284 285 286 289 291 292 293 295 295 297 298 300 302 302 303 303 303
255 256 256 254 254 255 257 259 261 262 262 265 267 269 271 271 272 272 272 273 276 277 279 280 282 284 286 287 289 289 289 291 294 295 298 299 298 300 300 301 301 301 301